Regional Weather Roundup
Issued by NWS

Home | Current Version | Previous Version | Graphics & Text | Print | Product List | Glossary On
Versions: 1 2 3 4 5 6 7 8 9 10 11 12 13 14 15 16 17 18 19 20 21 22 23 24 25 26 27 28 29 30 31 32 33 34 35 36 37 38 39 40 41 42 43 44 45 46 47 48 49 50
962
ASUS45 KTFX 272210
RWRMT
MONTANA REGIONAL WEATHER ROUNDUP
NATIONAL WEATHER SERVICE GREAT FALLS MT
400 PM MDT TUE JUN 27 2017

NOTE: "FAIR" INDICATES FEW OR NO CLOUDS BELOW 12000 FEET WITH NO
SIGNIFICANT WEATHER AND/OR OBSTRUCTIONS TO VISIBILITY.

MTZ001>007-043-272300-
WEST OF THE DIVIDE

CITY           SKY/WX    TMP DP  RH WIND       PRES   REMARKS
KALISPELL        N/A     82  38  20 W12       29.78S
MISSOULA         N/A     83  36  18 W16G29    29.82F
BUTTE          TSTM      64  51  62 MISG      29.94S
MULLAN PASS      N/A     65  44  46 VRB7G16   30.01F
ANACONDA         N/A     70  48  46 E5        29.91S
DEER LODGE       N/A     72  45  37 NW15G23   29.90F
EUREKA           N/A     79  39  24 CALM      29.78F
HAMILTON         N/A     75  48  38 N9        29.86F
$$

MTZ008-052>055-272300-
SOUTHWEST MONTANA

CITY           SKY/WX    TMP DP  RH WIND       PRES   REMARKS
BOZEMAN        MOSUNNY   75  46  35 NW7       29.88F
DILLON         CLOUDY    70  44  39 S5        29.94R
W YELLOWSTONE  CLOUDY    63  46  55 SE9G15    30.03F
ENNIS          PTSUNNY   72  39  30 W16       29.98R
THREE FORKS      N/A     75  48  38 NE2       29.88S
$$

MTZ009-010-012-014-046-048-049-054-272300-
EAST SLOPES AND CENTRAL MONTANA

CITY           SKY/WX    TMP DP  RH WIND       PRES   REMARKS
CUT BANK         N/A     78  37  22 SW16G25   29.78F
GREAT FALLS    PTSUNNY   78  50  37 NE7       29.78R
MALMSTROM AFB  CLOUDY    73  52  47 E14       29.78R
HELENA         MOSUNNY   82  45  27 W21       29.81F
CHOTEAU          N/A     79  43  27 VRB7      29.81F
$$

MTZ011-013-016-021-045-047-050-051-272300-
NORTH CENTRAL MONTANA

CITY           SKY/WX    TMP DP  RH WIND       PRES   REMARKS
HAVRE          PTSUNNY   81  46  29 NW21G28   29.72F
LEWISTOWN      CLOUDY    67  53  61 NW7       29.83S
N BAR RANCH    PTSUNNY   64  54  68 W16       29.87R
CHINOOK          N/A     81  52  36 NW13      29.70F
FORT BENTON      N/A     81  48  32 CALM      29.76S
$$

MTZ017>020-022>027-061-062-272300-
NORTHEAST MONTANA

CITY           SKY/WX    TMP DP  RH WIND       PRES   REMARKS
GLASGOW        MOSUNNY   83  52  34 NW17G29   29.61S
JORDAN           N/A     87  45  23 NW14G28   29.62F
SIDNEY         CLOUDY    89  51  27 NW18G28   29.55S
WOLF POINT     CLOUDY    88  49  25 NW10G21   29.58F
MALTA          MOSUNNY   81  52  36 NW17G26   29.66R
PLENTYWOOD       N/A     72  55  56 NW18G26   29.58F
POPLAR           N/A     81  54  39 N14       29.58F
$$

MTZ028>42-056>058-272300-
SOUTHCENTRAL AND SOUTHEAST MONTANA

CITY           SKY/WX    TMP DP  RH WIND       PRES   REMARKS
BAKER          CLOUDY    82  45  27 NW20G28   29.64R
BILLINGS       CLOUDY    79  47  32 W35G41    29.77R
LIVINGSTON     MOSUNNY   76  46  34 SW16G25   29.88S
MILES CITY     CLOUDY    76  51  41 W26G36    29.67R
BIG TIMBER     SUNNY     70  45  40 W24G31    29.88R
ROUNDUP          N/A     76  47  35 NW14      29.71S
$$

REGIONAL REPORTS...DAKOTAS

CITY           SKY/WX    TMP DP  RH WIND       PRES   REMARKS
WILLISTON      MOSUNNY   89  49  25 NW18      29.55R
MINOT          MOSUNNY   88  56  33 S15       29.53F
DICKINSON      CLOUDY    85  46  25 SE3       29.52F
BEACH            N/A     84  45  24 NW22G29   29.63R
CROSBY           N/A     79  54  41 SW8       29.55S
TIOGA            N/A     81  52  36 W12       29.57S
WATFORD CITY     N/A     84  54  34 NW12G17   29.53S
BISMARCK       CLOUDY    90  62  39 SE17G29   29.53F HX  90
GRAND FORKS    MOSUNNY   80  49  33 S22G30    29.68F
FARGO          PTSUNNY   77  45  32 S23G31    29.71F
BUFFALO SD       N/A     89  44  20 NW31G44   29.55S
RAPID CITY     SUNNY     91  44  19 N12G22    29.61F
$$

REGIONAL REPORTS...WYOMING/IDAHO/WASHINGTON

CITY           SKY/WX    TMP DP  RH WIND       PRES   REMARKS
GILLETTE       MOSUNNY   84  43  23 NW12G28   29.75F
SHERIDAN       RAIN      62  52  69 SW7G25    29.83R
BUFFALO WY     TSTM      59  49  69 W29G46    29.93R
CODY           CLOUDY    69  44  40 W20G28    29.93R
YELLOWSTONE LA   N/A     48  46  93 CALM      30.14S
IDAHO FALLS    MOSUNNY   78  49  35 SW7G16    29.92F
SALMON         PTSUNNY   72  48  43 SW12      29.89R
BOISE            N/A     87  45  23 NW12G17   29.86F
SPOKANE        PTSUNNY   77  39  25 SW5       29.87F
$$

REGIONAL REPORTS...ALBERTA

CITY           SKY/WX    TMP DP  RH WIND       PRES   REMARKS
EDMONTON       CLOUDY    63  46  55 NW10G22   29.68F
CALGARY        MOSUNNY   70  43  37 SE13G21   29.75F
LETHBRIDGE     PTSUNNY   73  50  43 SE3       29.73F
MEDICINE HAT   PTSUNNY   77  45  31 W9G20     29.72S
WATERTON GATE    N/A     75  39  27 SW15G26     N/A
MILK RIVER       N/A     75  54  46 N6          N/A
$$

REGIONAL REPORTS...SASKATCHEWAN

CITY           SKY/WX    TMP DP  RH WIND       PRES   REMARKS
SWIFT CURRENT  MOSUNNY   72  48  43 N23G30    29.67R
REGINA         LGT RAIN  64  61  88 W17G24    29.61R
SASKATOON      PTSUNNY   73  52  46 NW30G40   29.55R
CYPRESS HILLS    N/A     68  43  40 NW10G18     N/A
VAL MARIE        N/A     77  50  38 N18G28      N/A
ROCKGLEN         N/A     68  57  68 NW18G25     N/A
ASSINIBOIA       N/A     61  45  55 NW24G30     N/A
$$




USA.gov is the U.S. government's official web portal to all federal, state and local government web resources and services.